TimeEDT,TemperatureF,Dew PointF,Humidity,Sea Level PressureIn,VisibilityMPH,Wind Direction,Wind SpeedMPH,Gust SpeedMPH,PrecipitationIn,Events,Conditions,WindDirDegrees,DateUTC
12:54 AM,39.0,26.1,60,30.01,10.0,Calm,Calm,-,N/A,,Overcast,0,2013-03-23 04:54:00
1:54 AM,37.9,25.0,60,29.99,10.0,Calm,Calm,-,N/A,,Overcast,0,2013-03-23 05:54:00
2:54 AM,37.0,24.1,59,29.98,10.0,Calm,Calm,-,N/A,,Overcast,0,2013-03-23 06:54:00
3:54 AM,37.9,25.0,60,29.96,10.0,Calm,Calm,-,N/A,,Overcast,0,2013-03-23 07:54:00
4:54 AM,37.0,27.0,67,29.95,10.0,Calm,Calm,-,N/A,,Overcast,0,2013-03-23 08:54:00
5:54 AM,37.9,26.1,62,29.95,10.0,Calm,Calm,-,N/A,,Overcast,0,2013-03-23 09:54:00
6:54 AM,37.9,30.0,73,29.97,10.0,Calm,Calm,-,0.00,Rain,Light Rain,0,2013-03-23 10:54:00
7:54 AM,37.0,34.0,89,29.97,10.0,Calm,Calm,-,0.03,Rain,Light Rain,0,2013-03-23 11:54:00
8:54 AM,37.0,34.0,89,30.00,10.0,Calm,Calm,-,0.00,,Overcast,0,2013-03-23 12:54:00
9:47 AM,39.2,33.8,81,30.00,10.0,Calm,Calm,-,N/A,,Overcast,0,2013-03-23 13:47:00
9:54 AM,39.0,34.0,82,30.01,10.0,Calm,Calm,-,N/A,,Overcast,0,2013-03-23 13:54:00
10:54 AM,39.9,35.1,83,30.00,10.0,Calm,Calm,-,N/A,,Overcast,0,2013-03-23 14:54:00
11:02 AM,41.0,35.6,81,29.99,10.0,North,4.6,-,N/A,,Overcast,10,2013-03-23 15:02:00
11:54 AM,42.1,36.0,79,29.99,10.0,NW,3.5,-,N/A,,Overcast,310,2013-03-23 15:54:00
12:54 PM,45.0,35.1,68,29.98,10.0,Calm,Calm,-,N/A,,Overcast,0,2013-03-23 16:54:00
1:54 PM,46.9,37.0,68,29.96,10.0,Calm,Calm,-,N/A,,Overcast,0,2013-03-23 17:54:00
2:26 PM,48.2,35.6,62,29.93,10.0,Calm,Calm,-,N/A,,Overcast,0,2013-03-23 18:26:00
2:54 PM,50.0,37.9,63,29.92,10.0,Calm,Calm,-,N/A,,Overcast,0,2013-03-23 18:54:00
3:54 PM,55.9,39.9,55,29.89,10.0,NNW,4.6,-,N/A,,Mostly Cloudy,340,2013-03-23 19:54:00
4:54 PM,57.0,39.9,53,29.88,10.0,NNW,8.1,-,N/A,,Partly Cloudy,340,2013-03-23 20:54:00
5:54 PM,55.9,39.9,55,29.86,10.0,North,10.4,-,N/A,,Partly Cloudy,350,2013-03-23 21:54:00
6:54 PM,54.0,41.0,62,29.88,10.0,NNW,8.1,-,N/A,,Clear,330,2013-03-23 22:54:00
7:54 PM,52.0,39.9,63,29.88,10.0,Calm,Calm,-,N/A,,Mostly Cloudy,0,2013-03-23 23:54:00
8:54 PM,48.9,37.9,66,29.90,10.0,South,6.9,-,N/A,,Clear,170,2013-03-24 00:54:00
9:54 PM,46.0,39.9,79,29.89,10.0,SSE,6.9,-,N/A,,Clear,160,2013-03-24 01:54:00
10:54 PM,44.1,39.0,82,29.90,10.0,South,3.5,-,N/A,,Scattered Clouds,180,2013-03-24 02:54:00
11:54 PM,45.0,39.9,82,29.86,10.0,SSE,3.5,-,N/A,,Overcast,150,2013-03-24 03:54:00